TimeCDT,TemperatureF,Dew PointF,Humidity,Sea Level PressureIn,VisibilityMPH,Wind Direction,Wind SpeedMPH,Gust SpeedMPH,PrecipitationIn,Events,Conditions,WindDirDegrees,DateUTC
12:16 AM,69.8,64.4,83,29.93,10.0,SSW,10.4,-,N/A,,Overcast,210,2013-08-06 05:16:00
12:56 AM,68.0,64.9,90,29.90,10.0,SSW,12.7,-,N/A,,Overcast,200,2013-08-06 05:56:00
1:56 AM,68.0,65.8,93,29.90,10.0,SSW,6.9,-,N/A,,Overcast,210,2013-08-06 06:56:00
2:03 AM,68.0,66.2,94,29.93,10.0,SSW,8.1,-,N/A,,Overcast,200,2013-08-06 07:03:00
2:56 AM,68.0,65.8,93,29.88,10.0,SSW,9.2,-,N/A,,Overcast,210,2013-08-06 07:56:00
3:16 AM,68.0,66.2,94,29.90,10.0,SSW,8.1,-,N/A,,Overcast,210,2013-08-06 08:16:00
3:56 AM,68.0,65.8,93,29.86,8.0,SSW,8.1,-,N/A,,Overcast,210,2013-08-06 08:56:00
4:56 AM,66.9,65.8,96,29.88,8.0,SSW,6.9,-,N/A,,Overcast,210,2013-08-06 09:56:00
5:56 AM,66.9,65.8,96,29.89,6.0,SSW,8.1,-,N/A,,Overcast,210,2013-08-06 10:56:00
6:56 AM,68.0,66.9,96,29.91,4.0,SW,9.2,-,N/A,,Overcast,220,2013-08-06 11:56:00
7:56 AM,68.9,66.9,93,29.91,6.0,WSW,10.4,-,N/A,,Overcast,240,2013-08-06 12:56:00
8:56 AM,70.0,66.9,90,29.90,5.0,SW,4.6,-,N/A,,Overcast,230,2013-08-06 13:56:00
9:56 AM,70.9,68.0,91,29.93,7.0,SSW,13.8,-,N/A,,Overcast,210,2013-08-06 14:56:00
10:56 AM,72.0,68.0,87,29.93,7.0,SW,8.1,-,N/A,,Overcast,220,2013-08-06 15:56:00
11:56 AM,74.8,68.9,82,29.91,9.0,Variable,3.5,-,N/A,,Overcast,0,2013-08-06 16:56:00
12:56 PM,79.9,70.9,74,29.88,10.0,Variable,4.6,-,N/A,,Scattered Clouds,0,2013-08-06 17:56:00
1:56 PM,83.8,72.0,67,29.87,10.0,Variable,4.6,-,N/A,,Partly Cloudy,0,2013-08-06 18:56:00
2:56 PM,81.9,70.9,69,29.86,10.0,SSE,6.9,-,N/A,,Mostly Cloudy,150,2013-08-06 19:56:00
3:24 PM,82.4,71.6,70,29.88,10.0,SSE,8.1,-,0.00,,Mostly Cloudy,150,2013-08-06 20:24:00
3:56 PM,81.9,72.9,74,29.84,10.0,SSE,8.1,-,0.00,,Mostly Cloudy,150,2013-08-06 20:56:00
4:56 PM,83.8,70.9,65,29.85,10.0,South,8.1,-,N/A,,Scattered Clouds,170,2013-08-06 21:56:00
5:56 PM,82.9,72.0,69,29.85,10.0,South,12.7,-,N/A,,Partly Cloudy,170,2013-08-06 22:56:00
6:56 PM,79.9,72.0,77,29.86,10.0,South,9.2,-,N/A,,Clear,180,2013-08-06 23:56:00
7:56 PM,77.9,72.0,82,29.86,9.0,South,8.1,-,N/A,,Clear,190,2013-08-07 00:56:00
8:56 PM,73.9,70.9,90,29.87,8.0,South,5.8,-,N/A,,Clear,170,2013-08-07 01:56:00
9:56 PM,73.9,72.0,93,29.88,8.0,South,5.8,-,N/A,,Scattered Clouds,180,2013-08-07 02:56:00
10:56 PM,73.9,72.0,93,29.88,7.0,South,8.1,-,N/A,,Partly Cloudy,190,2013-08-07 03:56:00
11:56 PM,73.9,72.0,93,29.86,5.0,South,12.7,-,N/A,,Clear,190,2013-08-07 04:56:00